Change the Weather History Date:

Saturday, February 9, 2013

  Actual Average Record
Temperature  
Mean Temperature 70 °F -  
Max Temperature 83 °F 72 °F 83 °F (2013)
Min Temperature 56 °F 54 °F 48 °F (2005)
Cooling Degree Days 4    
Growing Degree Days 20 (Base 50)    
Moisture  
Dew Point 40 °F    
Average Humidity 37    
Maximum Humidity 60    
Minimum Humidity 13    
Precipitation  
Precipitation 0.00 in - - ()
Sea Level Pressure  
Sea Level Pressure 30.00 in    
Wind  
Wind Speed 8 mph ()    
Max Wind Speed 14 mph    
Max Gust Speed -    
Visibility 6.0 miles    
Events      
Averages and records for this station are not official NWS values.
T = Trace of Precipitation, MM = Missing Value Source: Averaged Metar Reports

Daily Weather History Graph

Daily Weather History Graph

Search for Another Location

Airport or City:

Trip Planner

Search our weather history database for the weather conditions in past years. The results will help you decide how hot, cold, wet, or windy it might be!

Date:

Astronomy

Feb. 09, 2013 Rise Set
Actual Time 6:25 AM EET 5:32 PM EET
Civil Twilight 6:01 AM EET 5:56 PM EET
Nautical Twilight 5:34 AM EET 6:24 PM EET
Astronomical Twilight 5:07 AM EET 6:51 PM EET
Moon 5:22 AM EET (2/9) 4:50 PM EET (2/9)
Length of Visible Light 11h 54m
Length of Day
11h 06m
Waning Crescent, 1% of the Moon is Illuminated
Feb 9
Waning Crescent
Feb 10
New
Feb 17
First Quarter
Feb 25
Full
Mar 4
Last Quarter

Hourly Weather History & Observations

Time (EET) Temp. Dew Point Humidity Pressure Visibility Wind Dir Wind Speed Gust Speed Precip Events Conditions
12:00 AM 57.2 °F 42.8 °F 59% 29.98 in - NNW 2.3 mph - N/A   Clear
1:00 AM 60.8 °F 44.6 °F 55% 29.98 in - NNW 9.2 mph - N/A   Clear
2:00 AM 59 °F 43 °F 44% 29.99 in 6 mi NW 10.4 mph - -  
2:00 AM 59.0 °F 42.8 °F 55% 29.98 in - NW 10.4 mph - N/A   Clear
3:00 AM 59.0 °F 37.4 °F 45% 29.98 in - NW 9.2 mph - N/A   Clear
4:00 AM 57.2 °F 35.6 °F 44% 29.98 in - WNW 11.5 mph - N/A   Clear
5:00 AM 57.2 °F 33.8 °F 41% 29.98 in - WNW 11.5 mph - N/A   Clear
6:00 AM 57.2 °F 30.2 °F 36% 30.01 in - WNW 10.4 mph - N/A   Clear
7:00 AM 57.2 °F 30.2 °F 36% 30.04 in - WNW 13.8 mph - N/A   Clear
8:00 AM 61 °F 31 °F 21% 30.04 in 6 mi WNW 9.2 mph - -  
8:00 AM 60.8 °F 32.0 °F 34% 30.04 in - WNW 9.2 mph - N/A   Clear
9:00 AM 69.8 °F 32.0 °F 25% 30.04 in - WNW 12.7 mph - N/A   Clear
10:00 AM 73.4 °F 32.0 °F 22% 30.06 in - NNW 10.4 mph - N/A   Clear
11:00 AM 78.8 °F 37.4 °F 23% 30.04 in - North 9.2 mph - N/A   Clear
12:00 PM 78.8 °F 37.4 °F 23% 30.01 in - North 10.4 mph - N/A   Clear
1:00 PM 80.6 °F 39.2 °F 23% 30.01 in - NNE 9.2 mph - N/A   Clear
2:00 PM 82 °F 40 °F 13% 29.99 in 6 mi NE 6.9 mph - -  
2:00 PM 82.4 °F 39.2 °F 21% 29.98 in - NE 6.9 mph - N/A   Clear
3:00 PM 82.4 °F 46.4 °F 28% 29.98 in - NNE 6.9 mph - N/A   Clear
4:00 PM 78.8 °F 46.4 °F 32% 29.95 in - NNE 6.9 mph - N/A   Clear
5:00 PM 77.0 °F 44.6 °F 32% 29.95 in - NNE 5.8 mph - N/A   Clear
6:00 PM 71.6 °F 46.4 °F 41% 29.98 in - NE 4.6 mph - N/A   Clear
7:00 PM 68.0 °F 50.0 °F 52% 29.98 in - NW 5.8 mph - N/A   Clear
8:00 PM 67 °F 51 °F 46% 30.00 in 6 mi NNW 4.6 mph - -  
8:00 PM 66.2 °F 51.8 °F 60% 29.98 in - NNW 4.6 mph - N/A   Clear
9:00 PM 68.0 °F 41.0 °F 37% 29.98 in - North 12.7 mph - N/A   Clear
10:00 PM 62.6 °F 37.4 °F 39% 30.01 in - NNW 6.9 mph - N/A   Clear
11:00 PM 60.8 °F 37.4 °F 42% 30.01 in - WNW 9.2 mph - N/A   Clear